When you browse on this site, cookies collect data to enhance your experience and personalize the content and advertising you see.
Visit our Privacy Policy to learn more. By continuing to use the site, you agree to this use of cookies and data.
  • In Hungary
  • List of Countries
  • For 7 days
  • Water Temperature
  • Weather Map
  • News
  • Weather Widgets
  • user-avatar
    Login

    Hourly Weather Stavky

    Today, 20 August, Tuesday

    Time Temperature Precipitation Wind Pressure Humidity
    00:00 +21°C° 0 mm 3 mps 744 mmHg 76%
    01:00 +21°C° 0 mm 2 mps 745 mmHg 77%
    02:00 +20°C° 0 mm 2 mps 745 mmHg 76%
    03:00 +20°C° 0 mm 2 mps 745 mmHg 76%
    04:00 +20°C° 0 mm 2 mps 745 mmHg 76%
    05:00 +19°C° 0 mm 2 mps 745 mmHg 76%
    06:00 +21°C° 0 mm 2 mps 746 mmHg 73%
    07:00 +23°C° 0 mm 2 mps 746 mmHg 70%
    08:00 +24°C° 0 mm 2 mps 746 mmHg 67%
    09:00 +26°C° 0 mm 2 mps 746 mmHg 63%
    10:00 +27°C° 0 mm 2 mps 746 mmHg 59%
    11:00 +29°C° 0 mm 2 mps 747 mmHg 55%
    12:00 +30°C° 0 mm 2 mps 747 mmHg 53%
    13:00 +30°C° 0 mm 2 mps 747 mmHg 51%
    14:00 +31°C° 0 mm 2 mps 747 mmHg 49%
    15:00 +31°C° 0 mm 2 mps 747 mmHg 51%
    16:00 +31°C° 0 mm 1 mps 747 mmHg 52%
    17:00 +31°C° 0 mm 1 mps 747 mmHg 53%
    18:00 +29°C° 0 mm 1 mps 747 mmHg 57%
    19:00 +27°C° 0 mm 2 mps 746 mmHg 61%
    20:00 +25°C° 0 mm 2 mps 746 mmHg 66%
    21:00 +24°C° 0 mm 2 mps 746 mmHg 65%
    22:00 +23°C° 0 mm 2 mps 746 mmHg 64%
    23:00 +23°C° 0 mm 2 mps 746 mmHg 64%

    Tomorrow, 21 August, Wednesday

    Time Temperature Precipitation Wind Pressure Humidity
    00:00 +21°C° 0 mm 2 mps 746 mmHg 65%
    01:00 +21°C° 0 mm 3 mps 746 mmHg 65%
    02:00 +20°C° 0 mm 3 mps 746 mmHg 66%
    03:00 +20°C° 0 mm 3 mps 746 mmHg 65%
    04:00 +20°C° 0 mm 3 mps 746 mmHg 64%
    05:00 +19°C° 0 mm 3 mps 746 mmHg 63%
    06:00 +20°C° 0 mm 4 mps 746 mmHg 62%
    07:00 +22°C° 0 mm 4 mps 746 mmHg 61%
    08:00 +23°C° 0 mm 4 mps 746 mmHg 60%
    09:00 +26°C° 0 mm 4 mps 746 mmHg 56%
    10:00 +27°C° 0 mm 5 mps 746 mmHg 53%
    11:00 +29°C° 0 mm 5 mps 746 mmHg 50%
    12:00 +30°C° 0 mm 4 mps 746 mmHg 48%
    13:00 +32°C° 0 mm 4 mps 746 mmHg 46%
    14:00 +32°C° 0 mm 4 mps 746 mmHg 44%
    15:00 +32°C° 0.4 mm 4 mps 746 mmHg 51%
    16:00 +30°C° 0.4 mm 4 mps 746 mmHg 58%
    17:00 +29°C° 0.4 mm 4 mps 746 mmHg 65%
    18:00 +26°C° 0.4 mm 4 mps 746 mmHg 73%
    19:00 +23°C° 0.4 mm 5 mps 747 mmHg 82%
    20:00 +20°C° 0.4 mm 5 mps 747 mmHg 90%
    21:00 +19°C° 0 mm 5 mps 747 mmHg 90%
    22:00 +17°C° 0 mm 5 mps 748 mmHg 90%
    23:00 +16°C° 0 mm 5 mps 748 mmHg 89%

    Day after tomorrow, 22 August, Thursday

    Time Temperature Precipitation Wind Pressure Humidity
    00:00 +15°C° 0 mm 5 mps 748 mmHg 90%
    01:00 +15°C° 0 mm 5 mps 749 mmHg 90%
    02:00 +14°C° 0 mm 4 mps 749 mmHg 90%
    03:00 +14°C° 0 mm 4 mps 749 mmHg 89%
    04:00 +14°C° 0 mm 5 mps 749 mmHg 89%
    05:00 +13°C° 0 mm 5 mps 749 mmHg 89%
    06:00 +14°C° 0 mm 5 mps 750 mmHg 87%
    07:00 +14°C° 0 mm 4 mps 750 mmHg 86%
    08:00 +14°C° 0 mm 4 mps 751 mmHg 84%
    09:00 +15°C° 0 mm 4 mps 751 mmHg 81%
    10:00 +17°C° 0 mm 4 mps 751 mmHg 77%
    11:00 +18°C° 0 mm 4 mps 751 mmHg 74%
    12:00 +20°C° 0 mm 4 mps 751 mmHg 70%
    13:00 +21°C° 0 mm 4 mps 750 mmHg 65%
    14:00 +22°C° 0 mm 4 mps 750 mmHg 61%
    15:00 +22°C° 0 mm 4 mps 750 mmHg 62%
    16:00 +22°C° 0 mm 4 mps 750 mmHg 63%
    17:00 +22°C° 0 mm 4 mps 750 mmHg 64%
    18:00 +21°C° 0 mm 4 mps 750 mmHg 68%
    19:00 +19°C° 0 mm 3 mps 750 mmHg 72%
    20:00 +18°C° 0 mm 3 mps 750 mmHg 76%
    21:00 +17°C° 0 mm 3 mps 750 mmHg 77%
    22:00 +17°C° 0 mm 3 mps 750 mmHg 78%
    23:00 +16°C° 0 mm 3 mps 750 mmHg 79%

    23 August, Friday

    Time Temperature Precipitation Wind Pressure Humidity
    00:00 +16°C° 0 mm 3 mps 750 mmHg 80%
    01:00 +16°C° 0 mm 3 mps 750 mmHg 81%
    02:00 +14°C° 0 mm 3 mps 750 mmHg 82%
    03:00 +14°C° 0 mm 3 mps 750 mmHg 85%
    04:00 +14°C° 0 mm 2 mps 750 mmHg 87%
    05:00 +13°C° 0 mm 2 mps 750 mmHg 90%
    06:00 +15°C° 0 mm 2 mps 751 mmHg 85%
    07:00 +16°C° 0 mm 3 mps 751 mmHg 80%
    08:00 +17°C° 0 mm 3 mps 751 mmHg 75%
    09:00 +19°C° 0 mm 3 mps 751 mmHg 67%
    10:00 +20°C° 0 mm 3 mps 751 mmHg 59%
    11:00 +22°C° 0 mm 3 mps 751 mmHg 51%
    12:00 +24°C° 0 mm 3 mps 751 mmHg 48%
    13:00 +24°C° 0 mm 3 mps 751 mmHg 45%
    14:00 +25°C° 0 mm 3 mps 751 mmHg 43%
    15:00 +24°C° 0 mm 3 mps 751 mmHg 46%
    16:00 +24°C° 0 mm 3 mps 751 mmHg 49%
    17:00 +24°C° 0 mm 3 mps 751 mmHg 51%
    18:00 +21°C° 0 mm 3 mps 751 mmHg 57%
    19:00 +19°C° 0 mm 3 mps 751 mmHg 63%
    20:00 +17°C° 0 mm 3 mps 751 mmHg 69%
    21:00 +16°C° 0 mm 2 mps 751 mmHg 72%
    22:00 +15°C° 0 mm 2 mps 751 mmHg 75%
    23:00 +14°C° 0 mm 2 mps 751 mmHg 78%

    24 August, Saturday

    Time Temperature Precipitation Wind Pressure Humidity
    00:00 +14°C° 0 mm 2 mps 751 mmHg 81%
    01:00 +14°C° 0 mm 2 mps 751 mmHg 84%
    02:00 +13°C° 0 mm 2 mps 751 mmHg 86%
    03:00 +13°C° 0 mm 2 mps 751 mmHg 87%
    04:00 +13°C° 0 mm 2 mps 751 mmHg 88%
    05:00 +12°C° 0 mm 2 mps 751 mmHg 89%
    06:00 +14°C° 0 mm 2 mps 751 mmHg 83%
    07:00 +15°C° 0 mm 2 mps 751 mmHg 78%
    08:00 +17°C° 0 mm 2 mps 751 mmHg 72%
    09:00 +19°C° 0 mm 3 mps 751 mmHg 66%
    10:00 +20°C° 0 mm 3 mps 751 mmHg 60%
    11:00 +22°C° 0 mm 3 mps 751 mmHg 54%
    12:00 +24°C° 0 mm 3 mps 751 mmHg 50%
    13:00 +25°C° 0 mm 3 mps 751 mmHg 47%
    14:00 +25°C° 0 mm 3 mps 751 mmHg 44%
    15:00 +25°C° 0 mm 3 mps 750 mmHg 47%
    16:00 +25°C° 0 mm 3 mps 750 mmHg 49%
    17:00 +25°C° 0 mm 3 mps 750 mmHg 52%
    18:00 +22°C° 0 mm 3 mps 749 mmHg 57%
    19:00 +19°C° 0 mm 3 mps 749 mmHg 62%
    20:00 +17°C° 0 mm 3 mps 749 mmHg 67%
    21:00 +17°C° 0 mm 2 mps 749 mmHg 68%
    22:00 +16°C° 0 mm 2 mps 749 mmHg 70%
    23:00 +15°C° 0 mm 2 mps 749 mmHg 71%

    25 August, Sunday

    Time Temperature Precipitation Wind Pressure Humidity
    00:00 +15°C° 0 mm 2 mps 749 mmHg 73%
    01:00 +15°C° 0 mm 2 mps 749 mmHg 75%
    02:00 +14°C° 0 mm 2 mps 749 mmHg 76%
    03:00 +14°C° 0 mm 2 mps 749 mmHg 78%
    04:00 +12°C° 0 mm 3 mps 748 mmHg 79%
    05:00 +12°C° 0 mm 3 mps 748 mmHg 81%
    06:00 +13°C° 0 mm 3 mps 748 mmHg 77%
    07:00 +16°C° 0 mm 3 mps 748 mmHg 73%
    08:00 +17°C° 0 mm 3 mps 748 mmHg 70%
    09:00 +19°C° 0 mm 4 mps 748 mmHg 64%
    10:00 +21°C° 0 mm 4 mps 748 mmHg 59%
    11:00 +23°C° 0 mm 4 mps 748 mmHg 54%
    12:00 +25°C° 0 mm 4 mps 748 mmHg 51%
    13:00 +25°C° 0 mm 4 mps 748 mmHg 49%
    14:00 +26°C° 0 mm 4 mps 747 mmHg 47%
    15:00 +26°C° 0 mm 3 mps 747 mmHg 50%
    16:00 +26°C° 0 mm 3 mps 747 mmHg 53%
    17:00 +25°C° 0 mm 2 mps 746 mmHg 56%
    18:00 +24°C° 0 mm 3 mps 746 mmHg 61%
    19:00 +21°C° 0 mm 3 mps 746 mmHg 65%
    20:00 +19°C° 0 mm 3 mps 746 mmHg 70%
    21:00 +18°C° 0 mm 3 mps 746 mmHg 72%
    22:00 +17°C° 0 mm 3 mps 746 mmHg 74%
    23:00 +17°C° 0 mm 3 mps 746 mmHg 76%
    Show more